Location: Newark
(34.1333°N, 7.9667°W)
Time: 07:37:03
(UTC+00:00)

JUGNU - Visible Passes

Search period start: 10 June 2023 00:00
Search period end: 20 June 2023 00:00
Orbit: 835 x 863 km, 20.0° (Epoch: 09 June)

Date Brightness Start Highest point End Pass type
(mag) Time Alt. Az. Time Alt. Az. Time Alt. Az.
11 Jun ? 21:23:01 10° SSW 21:24:44 14° S 21:24:44 14° S visible
12 Jun ? 21:07:14 10° SSW 21:10:42 16° S 21:10:42 16° S visible
13 Jun ? 20:51:29 10° SSW 20:55:08 17° S 20:56:33 15° SSE visible
14 Jun ? 20:35:46 10° SSW 20:39:34 17° S 20:42:17 13° SE visible
14 Jun ? 22:23:43 10° SW 22:24:08 11° SW 22:24:08 11° SW visible
15 Jun ? 20:20:04 10° SW 20:24:00 18° S 20:27:55 10° SE visible
15 Jun ? 22:08:10 10° SW 22:09:47 15° SW 22:09:47 15° SW visible
16 Jun ? 20:04:24 10° SW 20:08:26 19° S 20:12:28 10° SE visible
16 Jun ? 21:52:39 10° SW 21:55:20 18° SSW 21:55:20 18° SSW visible
17 Jun ? 21:37:08 10° SW 21:40:50 19° S 21:40:50 19° S visible
18 Jun ? 21:21:39 10° SW 21:25:37 18° S 21:26:18 18° S visible
19 Jun ? 21:06:11 10° SW 21:10:04 18° S 21:11:43 16° SSE visible
